Multibeam Report for DRFT10RR


Ship Name: Roger Revelle
Chief Scientist: Naar, David
University of South Florida
Source Organization: University of California, Scripps Institution of Oceanography (UC/SIO)
Start Date: 2002-03-07
End Date: 2002-03-08


View ISO Metadata

Visit the full NCEI Bathymetry Viewer


Multibeam Bathymetry

Cruise Details

Project: Drift Expedition leg 10
Instrument: Simrad EM120

Data Quality

Number of Files: 379
Number of Records: 476845
BATHYMETRY DATA Quantity Percentage
Number of Beams 66758295 100%
Number of Good Beams 57966810 86.83%
Number of Zero Beams 8791485 13.17%
Number of Flagged Beams 0 0%
AMPLITUDE DATA Quantity Percentage
Number of Beams 66758295 100%
Number of Good Beams 57966810 86.83%
Number of Zero Beams 8791485 13.17%
Number of Flagged Beams 0 0%
SIDESCAN DATA Quantity Percentage
Number of Pixels 488285184 100%
Number of Good Pixels 46777786 9.58%
Number of Zero Pixels 25127628 5.15%
Number of Flagged Pixels 416379770 85.27%

Navigation Totals

Total Time: 88.6353 hours
Total Track Length: 1348.9512 km
Average Speed: 15.219 km/hr (8.2176 knots)

Cruise Bounds

Northern Extent: -14.068749
Southern Extent: -14.782723
Western Extent: -171.0827
Eastern Extent: -170.32973

Limits

Minimum Sonar Depth -2.36 Maximum Sonar Depth 6.88
Minimum Altitude -0.09 Maximum Altitude 11361.1201
Minimum Depth 0.76 Maximum Depth 11500.6396
Minimum Amplitude -64 Maximum Amplitude 83
Minimum Sidescan -64 Maximum Sidescan 101.5

File Information

Full Resolution Bathymetry as collected (raw): 248

Files File Size Description
0001_20020306_205219_raw.mb56.gz 121.1KB Simrad multibeam vendor format
0001_20020307_212827_raw.mb56.gz 2.19MB Simrad multibeam vendor format
0001_20020309_011302_raw.mb56.gz 25.91MB Simrad multibeam vendor format
0001_20021109_033728_raw.mb56.gz 9.31MB Simrad multibeam vendor format
0001_20021110_001833_raw.mb56.gz 13.01MB Simrad multibeam vendor format
0001_20021110_024003_raw.mb56.gz 7.05MB Simrad multibeam vendor format
0001_20021110_050938_raw.mb56.gz 19.52MB Simrad multibeam vendor format
0001_20021110_055642_raw.mb56.gz 5.24MB Simrad multibeam vendor format
0001_20021110_061655_raw.mb56.gz 88.0KB Simrad multibeam vendor format
0001_20021110_190813_raw.mb56.gz 10.63MB Simrad multibeam vendor format
0001_20021110_201927_raw.mb56.gz 4.19MB Simrad multibeam vendor format
0001_20021110_205112_raw.mb56.gz 9.84MB Simrad multibeam vendor format
0001_20021110_230838_raw.mb56.gz 3.45MB Simrad multibeam vendor format
0001_20021111_171819_raw.mb56.gz 5.02MB Simrad multibeam vendor format
0001_20021111_182337_raw.mb56.gz 27.01MB Simrad multibeam vendor format
0001_20021112_004221_raw.mb56.gz 4.55MB Simrad multibeam vendor format
0002_20020306_205428_raw.mb56.gz 1.02MB Simrad multibeam vendor format
0002_20020307_213251_raw.mb56.gz 4.51MB Simrad multibeam vendor format
0002_20020309_055344_raw.mb56.gz 4.34MB Simrad multibeam vendor format
0002_20021109_035513_raw.mb56.gz 7.75MB Simrad multibeam vendor format
0002_20021110_003410_raw.mb56.gz 0.67MB Simrad multibeam vendor format
0002_20021110_025633_raw.mb56.gz 13.28MB Simrad multibeam vendor format
0002_20021110_053605_raw.mb56.gz 409.0KB Simrad multibeam vendor format
0002_20021110_060625_raw.mb56.gz 5.03MB Simrad multibeam vendor format
0002_20021110_061740_raw.mb56.gz 8.93MB Simrad multibeam vendor format
0002_20021110_192730_raw.mb56.gz 5.36MB Simrad multibeam vendor format
0002_20021110_202815_raw.mb56.gz 2.04MB Simrad multibeam vendor format
0002_20021110_210643_raw.mb56.gz 138.1KB Simrad multibeam vendor format
0002_20021110_231203_raw.mb56.gz 19.20MB Simrad multibeam vendor format
0002_20021111_172437_raw.mb56.gz 3.13MB Simrad multibeam vendor format
0002_20021111_190115_raw.mb56.gz 1.54MB Simrad multibeam vendor format
0002_20021112_005035_raw.mb56.gz 2.25MB Simrad multibeam vendor format
0003_20020306_210904_raw.mb56.gz 102.1KB Simrad multibeam vendor format
0003_20020307_213942_raw.mb56.gz 1.47MB Simrad multibeam vendor format
0003_20021109_040858_raw.mb56.gz 8.39MB Simrad multibeam vendor format
0003_20021110_003503_raw.mb56.gz 19.97MB Simrad multibeam vendor format
0003_20021110_032031_raw.mb56.gz 20.57MB Simrad multibeam vendor format
0003_20021110_053643_raw.mb56.gz 4.17MB Simrad multibeam vendor format
0003_20021110_063425_raw.mb56.gz 0.98MB Simrad multibeam vendor format
0003_20021110_193659_raw.mb56.gz 2.72MB Simrad multibeam vendor format
0003_20021110_203159_raw.mb56.gz 3.94MB Simrad multibeam vendor format
0003_20021110_210658_raw.mb56.gz 0.92MB Simrad multibeam vendor format
0003_20021110_232908_raw.mb56.gz 4.86MB Simrad multibeam vendor format
0003_20021111_173000_raw.mb56.gz 2.25MB Simrad multibeam vendor format
0003_20021111_190425_raw.mb56.gz 5.10MB Simrad multibeam vendor format
0003_20021112_005446_raw.mb56.gz 404.6KB Simrad multibeam vendor format
0004_20020306_211113_raw.mb56.gz 365.8KB Simrad multibeam vendor format
0004_20020307_214241_raw.mb56.gz 3.94MB Simrad multibeam vendor format
0004_20021109_042402_raw.mb56.gz 5.70MB Simrad multibeam vendor format
0004_20021110_010257_raw.mb56.gz 0.71MB Simrad multibeam vendor format
0004_20021110_035507_raw.mb56.gz 15.64MB Simrad multibeam vendor format
0004_20021110_054229_raw.mb56.gz 251.7KB Simrad multibeam vendor format
0004_20021110_064442_raw.mb56.gz 7.23MB Simrad multibeam vendor format
0004_20021110_194139_raw.mb56.gz 1.21MB Simrad multibeam vendor format
0004_20021110_203939_raw.mb56.gz 403.7KB Simrad multibeam vendor format
0004_20021110_210839_raw.mb56.gz 16.39MB Simrad multibeam vendor format
0004_20021110_233508_raw.mb56.gz 17.26MB Simrad multibeam vendor format
0004_20021111_173419_raw.mb56.gz 12.52MB Simrad multibeam vendor format
0004_20021111_191608_raw.mb56.gz 0.50MB Simrad multibeam vendor format
0004_20021112_005528_raw.mb56.gz 3.36MB Simrad multibeam vendor format
0005_20020306_211629_raw.mb56.gz 469.2KB Simrad multibeam vendor format
0005_20020307_215149_raw.mb56.gz 5.36MB Simrad multibeam vendor format
0005_20021109_043427_raw.mb56.gz 183.0KB Simrad multibeam vendor format
0005_20021110_010330_raw.mb56.gz 1.04MB Simrad multibeam vendor format
0005_20021110_042319_raw.mb56.gz 10.71MB Simrad multibeam vendor format
0005_20021110_054300_raw.mb56.gz 271.1KB Simrad multibeam vendor format
0005_20021110_065923_raw.mb56.gz 5.80MB Simrad multibeam vendor format
0005_20021110_194345_raw.mb56.gz 3.15MB Simrad multibeam vendor format
0005_20021110_204753_raw.mb56.gz 451.0KB Simrad multibeam vendor format
0005_20021110_212935_raw.mb56.gz 4.59MB Simrad multibeam vendor format
0005_20021110_235332_raw.mb56.gz 2.67MB Simrad multibeam vendor format
0005_20021111_192250_raw.mb56.gz 5.77MB Simrad multibeam vendor format
0005_20021112_010034_raw.mb56.gz 252.1KB Simrad multibeam vendor format
0006_20020306_212259_raw.mb56.gz 4.31MB Simrad multibeam vendor format
0006_20020307_220241_raw.mb56.gz 4.20MB Simrad multibeam vendor format
0006_20021109_050048_raw.mb56.gz 3.71MB Simrad multibeam vendor format
0006_20021110_010630_raw.mb56.gz 41.6KB Simrad multibeam vendor format
0006_20021110_044221_raw.mb56.gz 4.51MB Simrad multibeam vendor format
0006_20021110_054423_raw.mb56.gz 7.12MB Simrad multibeam vendor format
0006_20021110_071754_raw.mb56.gz 3.68MB Simrad multibeam vendor format
0006_20021110_194903_raw.mb56.gz 0.98MB Simrad multibeam vendor format
0006_20021110_213332_raw.mb56.gz 20.88MB Simrad multibeam vendor format
0006_20021110_235751_raw.mb56.gz 0.96MB Simrad multibeam vendor format
0006_20021111_193347_raw.mb56.gz 1.96MB Simrad multibeam vendor format
0006_20021112_010128_raw.mb56.gz 7.78MB Simrad multibeam vendor format
0007_20020306_222310_raw.mb56.gz 7.58MB Simrad multibeam vendor format
0007_20020307_220857_raw.mb56.gz 14.96MB Simrad multibeam vendor format
0007_20021109_051424_raw.mb56.gz 7.80MB Simrad multibeam vendor format
0007_20021110_010747_raw.mb56.gz 8.61MB Simrad multibeam vendor format
0007_20021110_072506_raw.mb56.gz 11.75MB Simrad multibeam vendor format
0007_20021110_215411_raw.mb56.gz 5.78MB Simrad multibeam vendor format
0007_20021111_193633_raw.mb56.gz 10.69MB Simrad multibeam vendor format
0007_20021112_010950_raw.mb56.gz 1.66MB Simrad multibeam vendor format
0008_20020307_223545_raw.mb56.gz 2.14MB Simrad multibeam vendor format
0008_20021109_052823_raw.mb56.gz 6.60MB Simrad multibeam vendor format
0008_20021110_012156_raw.mb56.gz 284.2KB Simrad multibeam vendor format
0008_20021110_074807_raw.mb56.gz 11.67MB Simrad multibeam vendor format
0008_20021110_220100_raw.mb56.gz 1.64MB Simrad multibeam vendor format
0008_20021111_195101_raw.mb56.gz 0.98MB Simrad multibeam vendor format
0008_20021112_011121_raw.mb56.gz 8.94MB Simrad multibeam vendor format
0009_20020307_033424_raw.mb56.gz 6.34MB Simrad multibeam vendor format
0009_20020307_223907_raw.mb56.gz 15.47MB Simrad multibeam vendor format
0009_20021109_054125_raw.mb56.gz 7.27MB Simrad multibeam vendor format
0009_20021110_012229_raw.mb56.gz 3.78MB Simrad multibeam vendor format
0009_20021110_080833_raw.mb56.gz 10.69MB Simrad multibeam vendor format
0009_20021110_220907_raw.mb56.gz 5.84MB Simrad multibeam vendor format
0009_20021111_195207_raw.mb56.gz 7.86MB Simrad multibeam vendor format
0009_20021112_012012_raw.mb56.gz 480.6KB Simrad multibeam vendor format
0010_20020307_045826_raw.mb56.gz 4.37MB Simrad multibeam vendor format
0010_20020307_230500_raw.mb56.gz 2.40MB Simrad multibeam vendor format
0010_20021109_055601_raw.mb56.gz 13.94MB Simrad multibeam vendor format
0010_20021110_012808_raw.mb56.gz 0.63MB Simrad multibeam vendor format
0010_20021110_082739_raw.mb56.gz 14.92MB Simrad multibeam vendor format
0010_20021110_223025_raw.mb56.gz 2.28MB Simrad multibeam vendor format
0010_20021111_200125_raw.mb56.gz 0.55MB Simrad multibeam vendor format
0010_20021112_012058_raw.mb56.gz 1.78MB Simrad multibeam vendor format
0011_20020307_055826_raw.mb56.gz 4.46MB Simrad multibeam vendor format
0011_20020307_230947_raw.mb56.gz 11.76MB Simrad multibeam vendor format
0011_20021110_012904_raw.mb56.gz 6.22MB Simrad multibeam vendor format
0011_20021110_085545_raw.mb56.gz 6.59MB Simrad multibeam vendor format
0011_20021110_223748_raw.mb56.gz 2.09MB Simrad multibeam vendor format
0011_20021111_200200_raw.mb56.gz 2.14MB Simrad multibeam vendor format
0011_20021112_012407_raw.mb56.gz 1.04MB Simrad multibeam vendor format
0012_20020307_065826_raw.mb56.gz 4.53MB Simrad multibeam vendor format
0012_20020307_233215_raw.mb56.gz 2.45MB Simrad multibeam vendor format
0012_20021110_013910_raw.mb56.gz 2.52MB Simrad multibeam vendor format
0012_20021111_200638_raw.mb56.gz 4.05MB Simrad multibeam vendor format
0012_20021112_012559_raw.mb56.gz 7.13MB Simrad multibeam vendor format
0013_20020307_075826_raw.mb56.gz 4.57MB Simrad multibeam vendor format
0013_20020307_233557_raw.mb56.gz 15.91MB Simrad multibeam vendor format
0013_20021110_014104_raw.mb56.gz 1.55MB Simrad multibeam vendor format
0013_20021111_201411_raw.mb56.gz 10.36MB Simrad multibeam vendor format
0013_20021112_013612_raw.mb56.gz 1.17MB Simrad multibeam vendor format
0014_20020307_085826_raw.mb56.gz 4.54MB Simrad multibeam vendor format
0014_20021110_014245_raw.mb56.gz 0.74MB Simrad multibeam vendor format
0014_20021111_203236_raw.mb56.gz 1.95MB Simrad multibeam vendor format
0014_20021112_013806_raw.mb56.gz 14.96MB Simrad multibeam vendor format
0015_20020307_095826_raw.mb56.gz 4.59MB Simrad multibeam vendor format
0015_20020308_000311_raw.mb56.gz 5.78MB Simrad multibeam vendor format
0015_20021110_014435_raw.mb56.gz 1.25MB Simrad multibeam vendor format
0015_20021111_210707_raw.mb56.gz 20.59MB Simrad multibeam vendor format
0015_20021112_020209_raw.mb56.gz 0.91MB Simrad multibeam vendor format
0016_20020307_105826_raw.mb56.gz 4.57MB Simrad multibeam vendor format
0016_20020308_001435_raw.mb56.gz 9.52MB Simrad multibeam vendor format
0016_20021110_014727_raw.mb56.gz 103.7KB Simrad multibeam vendor format
0016_20021111_214435_raw.mb56.gz 2.89MB Simrad multibeam vendor format
0016_20021112_020506_raw.mb56.gz 3.00MB Simrad multibeam vendor format
0017_20020307_115826_raw.mb56.gz 4.62MB Simrad multibeam vendor format
0017_20020308_004507_raw.mb56.gz 4.13MB Simrad multibeam vendor format
0017_20021110_014948_raw.mb56.gz 1.08MB Simrad multibeam vendor format
0017_20021111_215102_raw.mb56.gz 3.26MB Simrad multibeam vendor format
0017_20021112_021033_raw.mb56.gz 8.13MB Simrad multibeam vendor format
0018_20020307_125826_raw.mb56.gz 4.76MB Simrad multibeam vendor format
0018_20020308_011630_raw.mb56.gz 19.32MB Simrad multibeam vendor format
0018_20021110_015212_raw.mb56.gz 0.79MB Simrad multibeam vendor format
0018_20021111_215637_raw.mb56.gz 1.85MB Simrad multibeam vendor format
0018_20021112_022534_raw.mb56.gz 12.71MB Simrad multibeam vendor format
0019_20020307_135826_raw.mb56.gz 4.81MB Simrad multibeam vendor format
0019_20020308_015821_raw.mb56.gz 6.34MB Simrad multibeam vendor format
0019_20021110_015339_raw.mb56.gz 1.38MB Simrad multibeam vendor format
0019_20021111_215838_raw.mb56.gz 10.28MB Simrad multibeam vendor format
0020_20020307_145826_raw.mb56.gz 5.04MB Simrad multibeam vendor format
0020_20020308_020920_raw.mb56.gz 11.84MB Simrad multibeam vendor format
0020_20021110_015618_raw.mb56.gz 1.22MB Simrad multibeam vendor format
0020_20021111_221208_raw.mb56.gz 1.68MB Simrad multibeam vendor format
0021_20020307_155826_raw.mb56.gz 5.38MB Simrad multibeam vendor format
0021_20020308_022525_raw.mb56.gz 10.85MB Simrad multibeam vendor format
0021_20021110_020101_raw.mb56.gz 157.1KB Simrad multibeam vendor format
0021_20021111_221427_raw.mb56.gz 8.04MB Simrad multibeam vendor format
0022_20020307_165826_raw.mb56.gz 5.95MB Simrad multibeam vendor format
0022_20020308_024050_raw.mb56.gz 10.25MB Simrad multibeam vendor format
0022_20021110_020128_raw.mb56.gz 1.02MB Simrad multibeam vendor format
0022_20021111_222712_raw.mb56.gz 1.67MB Simrad multibeam vendor format
0023_20020307_175826_raw.mb56.gz 1.42MB Simrad multibeam vendor format
0023_20020308_025523_raw.mb56.gz 3.56MB Simrad multibeam vendor format
0023_20021110_020358_raw.mb56.gz 305.2KB Simrad multibeam vendor format
0023_20021111_222917_raw.mb56.gz 7.17MB Simrad multibeam vendor format
0024_20020308_030057_raw.mb56.gz 16.39MB Simrad multibeam vendor format
0024_20021110_020437_raw.mb56.gz 3.13MB Simrad multibeam vendor format
0024_20021111_223846_raw.mb56.gz 3.55MB Simrad multibeam vendor format
0025_20020308_033312_raw.mb56.gz 1.19MB Simrad multibeam vendor format
0025_20021110_021104_raw.mb56.gz 482.5KB Simrad multibeam vendor format
0025_20021111_224306_raw.mb56.gz 9.34MB Simrad multibeam vendor format
0026_20020308_033551_raw.mb56.gz 9.15MB Simrad multibeam vendor format
0026_20021110_021254_raw.mb56.gz 0.78MB Simrad multibeam vendor format
0026_20021111_225404_raw.mb56.gz 1.10MB Simrad multibeam vendor format
0027_20020308_035002_raw.mb56.gz 1.81MB Simrad multibeam vendor format
0027_20021110_021524_raw.mb56.gz 442.0KB Simrad multibeam vendor format
0027_20021111_225510_raw.mb56.gz 16.92MB Simrad multibeam vendor format
0028_20020308_035233_raw.mb56.gz 5.73MB Simrad multibeam vendor format
0028_20021110_021620_raw.mb56.gz 1.03MB Simrad multibeam vendor format
0028_20021111_232015_raw.mb56.gz 1.08MB Simrad multibeam vendor format
0029_20020308_040351_raw.mb56.gz 0.98MB Simrad multibeam vendor format
0029_20021110_021837_raw.mb56.gz 1.43MB Simrad multibeam vendor format
0029_20021111_232220_raw.mb56.gz 12.79MB Simrad multibeam vendor format
0030_20020308_040557_raw.mb56.gz 11.00MB Simrad multibeam vendor format
0030_20021110_022442_raw.mb56.gz 0.78MB Simrad multibeam vendor format
0030_20021111_234414_raw.mb56.gz 1.00MB Simrad multibeam vendor format
0031_20020308_044148_raw.mb56.gz 65.4KB Simrad multibeam vendor format
0031_20021110_022634_raw.mb56.gz 0.55MB Simrad multibeam vendor format
0031_20021111_234547_raw.mb56.gz 5.67MB Simrad multibeam vendor format
0032_20020308_044305_raw.mb56.gz 201.4KB Simrad multibeam vendor format
0032_20021110_022744_raw.mb56.gz 2.63MB Simrad multibeam vendor format
0032_20021111_235546_raw.mb56.gz 0.68MB Simrad multibeam vendor format
0033_20020308_044551_raw.mb56.gz 9.69MB Simrad multibeam vendor format
0033_20021110_023448_raw.mb56.gz 1.58MB Simrad multibeam vendor format
0033_20021111_235659_raw.mb56.gz 4.25MB Simrad multibeam vendor format
0034_20020308_053732_raw.mb56.gz 4.48MB Simrad multibeam vendor format
0034_20021110_023750_raw.mb56.gz 484.2KB Simrad multibeam vendor format
0034_20021112_000406_raw.mb56.gz 2.53MB Simrad multibeam vendor format
0035_20020308_060147_raw.mb56.gz 0.70MB Simrad multibeam vendor format
0035_20021112_000838_raw.mb56.gz 0.94MB Simrad multibeam vendor format
0036_20020308_061128_raw.mb56.gz 5.30MB Simrad multibeam vendor format
0036_20021112_001024_raw.mb56.gz 2.87MB Simrad multibeam vendor format
0037_20020308_072359_raw.mb56.gz 166.5KB Simrad multibeam vendor format
0037_20021112_001656_raw.mb56.gz 3.50MB Simrad multibeam vendor format
0038_20020308_072604_raw.mb56.gz 5.40MB Simrad multibeam vendor format
0038_20021112_002205_raw.mb56.gz 0.66MB Simrad multibeam vendor format
0039_20020308_083824_raw.mb56.gz 1.44MB Simrad multibeam vendor format
0039_20021112_002511_raw.mb56.gz 3.51MB Simrad multibeam vendor format
0040_20020308_085713_raw.mb56.gz 187.9KB Simrad multibeam vendor format
0040_20021112_003204_raw.mb56.gz 120.9KB Simrad multibeam vendor format
0041_20020308_085944_raw.mb56.gz 2.30MB Simrad multibeam vendor format
0042_20020308_093057_raw.mb56.gz 425.4KB Simrad multibeam vendor format
0043_20020308_093643_raw.mb56.gz 5.47MB Simrad multibeam vendor format
0044_20020308_105330_raw.mb56.gz 1.07MB Simrad multibeam vendor format
0045_20020308_110917_raw.mb56.gz 1.85MB Simrad multibeam vendor format
0046_20020308_113615_raw.mb56.gz 4.97MB Simrad multibeam vendor format
0047_20020308_125002_raw.mb56.gz 4.77MB Simrad multibeam vendor format
0048_20020308_135046_raw.mb56.gz 3.55MB Simrad multibeam vendor format
0049_20020308_144514_raw.mb56.gz 0.97MB Simrad multibeam vendor format
0050_20020308_150003_raw.mb56.gz 129.0KB Simrad multibeam vendor format
0051_20020308_150147_raw.mb56.gz 1.92MB Simrad multibeam vendor format
0052_20020308_152817_raw.mb56.gz 184.2KB Simrad multibeam vendor format
0053_20020308_153038_raw.mb56.gz 4.24MB Simrad multibeam vendor format
0054_20020308_163524_raw.mb56.gz 2.00MB Simrad multibeam vendor format
0055_20020308_170612_raw.mb56.gz 4.28MB Simrad multibeam vendor format
0056_20020308_180458_raw.mb56.gz 1.00MB Simrad multibeam vendor format
0057_20020308_181754_raw.mb56.gz 2.75MB Simrad multibeam vendor format
0058_20020308_182824_raw.mb56.gz 8.30MB Simrad multibeam vendor format
0059_20020308_184306_raw.mb56.gz 1.74MB Simrad multibeam vendor format
0060_20020308_184646_raw.mb56.gz 3.49MB Simrad multibeam vendor format
0061_20020308_185314_raw.mb56.gz 0.63MB Simrad multibeam vendor format
0062_20020308_185430_raw.mb56.gz 6.03MB Simrad multibeam vendor format
0063_20020308_190731_raw.mb56.gz 3.08MB Simrad multibeam vendor format
0064_20020308_191236_raw.mb56.gz 4.52MB Simrad multibeam vendor format
0065_20020308_192121_raw.mb56.gz 4.07MB Simrad multibeam vendor format
0066_20020308_193100_raw.mb56.gz 0.93MB Simrad multibeam vendor format

Full Resolution Bathymetry (processed): 65

Files File Size Description
20070726153354001_0001_20020307_212827p.mb57.gz 2.69MB Simrad multibeam processing format
20070726153354002_0002_20020307_213251p.mb57.gz 5.54MB Simrad multibeam processing format
20070726153355003_0003_20020307_213942p.mb57.gz 1.83MB Simrad multibeam processing format
20070726153355004_0004_20020307_214241p.mb57.gz 4.85MB Simrad multibeam processing format
20070726153356005_0005_20020307_215149p.mb57.gz 6.53MB Simrad multibeam processing format
20070726153356006_0006_20020307_220241p.mb57.gz 5.14MB Simrad multibeam processing format
20070726153356007_0007_20020307_220857p.mb57.gz 18.43MB Simrad multibeam processing format
20070726153359008_0008_20020307_223545p.mb57.gz 2.65MB Simrad multibeam processing format
20070726153400009_0009_20020307_223907p.mb57.gz 19.01MB Simrad multibeam processing format
20070726153401010_0010_20020307_230500p.mb57.gz 2.98MB Simrad multibeam processing format
20070726153402011_0011_20020307_230947p.mb57.gz 14.57MB Simrad multibeam processing format
20070726153402012_0012_20020307_233215p.mb57.gz 3.04MB Simrad multibeam processing format
20070726153403013_0013_20020307_233557p.mb57.gz 19.57MB Simrad multibeam processing format
20070726153406014_0015_20020308_000311p.mb57.gz 7.06MB Simrad multibeam processing format
20070726153407015_0016_20020308_001435p.mb57.gz 11.40MB Simrad multibeam processing format
20070726153407016_0017_20020308_004507p.mb57.gz 4.68MB Simrad multibeam processing format
20070726153408017_0018_20020308_011630p.mb57.gz 23.52MB Simrad multibeam processing format
20070726153411018_0019_20020308_015821p.mb57.gz 7.86MB Simrad multibeam processing format
20070726153411019_0020_20020308_020920p.mb57.gz 14.38MB Simrad multibeam processing format
20070726153412020_0021_20020308_022525p.mb57.gz 13.26MB Simrad multibeam processing format
20070726153415021_0022_20020308_024050p.mb57.gz 12.52MB Simrad multibeam processing format
20070726153416022_0023_20020308_025523p.mb57.gz 4.36MB Simrad multibeam processing format
20070726153417023_0024_20020308_030057p.mb57.gz 20.16MB Simrad multibeam processing format
20070726153418024_0025_20020308_033312p.mb57.gz 1.47MB Simrad multibeam processing format
20070726153419025_0026_20020308_033551p.mb57.gz 11.22MB Simrad multibeam processing format
20070726153420026_0027_20020308_035002p.mb57.gz 2.22MB Simrad multibeam processing format
20070726153421027_0028_20020308_035233p.mb57.gz 7.11MB Simrad multibeam processing format
20070726153422028_0029_20020308_040351p.mb57.gz 1.23MB Simrad multibeam processing format
20070726153422029_0030_20020308_040557p.mb57.gz 13.32MB Simrad multibeam processing format
20070726153423030_0031_20020308_044148p.mb57.gz 65.3KB Simrad multibeam processing format
20070726153423031_0032_20020308_044305p.mb57.gz 221.8KB Simrad multibeam processing format
20070726153424032_0033_20020308_044551p.mb57.gz 11.50MB Simrad multibeam processing format
20070726153426033_0034_20020308_053732p.mb57.gz 5.28MB Simrad multibeam processing format
20070726153426034_0035_20020308_060147p.mb57.gz 0.75MB Simrad multibeam processing format
20070726153427035_0036_20020308_061128p.mb57.gz 5.73MB Simrad multibeam processing format
20070726153427036_0037_20020308_072359p.mb57.gz 176.2KB Simrad multibeam processing format
20070726153428037_0038_20020308_072604p.mb57.gz 5.84MB Simrad multibeam processing format
20070726153428038_0039_20020308_083824p.mb57.gz 1.55MB Simrad multibeam processing format
20070726153428039_0040_20020308_085713p.mb57.gz 198.6KB Simrad multibeam processing format
20070726153429040_0041_20020308_085944p.mb57.gz 2.47MB Simrad multibeam processing format
20070726153430041_0042_20020308_093057p.mb57.gz 456.6KB Simrad multibeam processing format
20070726153430042_0043_20020308_093643p.mb57.gz 5.89MB Simrad multibeam processing format
20070726153431043_0044_20020308_105330p.mb57.gz 1.15MB Simrad multibeam processing format
20070726153431044_0045_20020308_110917p.mb57.gz 1.99MB Simrad multibeam processing format
20070726153432045_0046_20020308_113615p.mb57.gz 5.38MB Simrad multibeam processing format
20070726153432046_0047_20020308_125002p.mb57.gz 5.24MB Simrad multibeam processing format
20070726153433047_0048_20020308_135046p.mb57.gz 3.85MB Simrad multibeam processing format
20070726153434048_0049_20020308_144514p.mb57.gz 1.05MB Simrad multibeam processing format
20070726153434049_0050_20020308_150003p.mb57.gz 138.8KB Simrad multibeam processing format
20070726153435050_0051_20020308_150147p.mb57.gz 2.09MB Simrad multibeam processing format
20070726153435051_0052_20020308_152817p.mb57.gz 197.5KB Simrad multibeam processing format
20070726153435052_0053_20020308_153038p.mb57.gz 4.59MB Simrad multibeam processing format
20070726153436053_0054_20020308_163524p.mb57.gz 2.15MB Simrad multibeam processing format
20070726153436054_0055_20020308_170612p.mb57.gz 4.66MB Simrad multibeam processing format
20070726153437055_0056_20020308_180458p.mb57.gz 1.09MB Simrad multibeam processing format
20070726153437056_0057_20020308_181754p.mb57.gz 3.28MB Simrad multibeam processing format
20070726153438057_0058_20020308_182824p.mb57.gz 10.14MB Simrad multibeam processing format
20070726153438058_0059_20020308_184306p.mb57.gz 2.15MB Simrad multibeam processing format
20070726153439059_0060_20020308_184646p.mb57.gz 4.35MB Simrad multibeam processing format
20070726153440060_0061_20020308_185314p.mb57.gz 0.79MB Simrad multibeam processing format
20070726153440061_0062_20020308_185430p.mb57.gz 7.46MB Simrad multibeam processing format
20070726153442062_0063_20020308_190731p.mb57.gz 3.81MB Simrad multibeam processing format
20070726153442063_0064_20020308_191236p.mb57.gz 5.54MB Simrad multibeam processing format
20070726153442064_0065_20020308_192121p.mb57.gz 5.07MB Simrad multibeam processing format
20070726153443065_0066_20020308_193100p.mb57.gz 1.15MB Simrad multibeam processing format

Metadata Files: 66

Files File Size Description
DRFT10RR_Multibeam.xml NGDC created ISO metadata
20070726153354001_0001_20020307_212827p.mb57.mif 9.3KB Metadata I?? File for each individual data file
20070726153354002_0002_20020307_213251p.mb57.mif 9.3KB Metadata I?? File for each individual data file
20070726153355003_0003_20020307_213942p.mb57.mif 9.3KB Metadata I?? File for each individual data file
20070726153355004_0004_20020307_214241p.mb57.mif 9.3KB Metadata I?? File for each individual data file
20070726153356005_0005_20020307_215149p.mb57.mif 9.3KB Metadata I?? File for each individual data file
20070726153356006_0006_20020307_220241p.mb57.mif 9.3KB Metadata I?? File for each individual data file
20070726153356007_0007_20020307_220857p.mb57.mif 9.3KB Metadata I?? File for each individual data file
20070726153359008_0008_20020307_223545p.mb57.mif 9.3KB Metadata I?? File for each individual data file
20070726153400009_0009_20020307_223907p.mb57.mif 9.3KB Metadata I?? File for each individual data file
20070726153401010_0010_20020307_230500p.mb57.mif 9.3KB Metadata I?? File for each individual data file
20070726153402011_0011_20020307_230947p.mb57.mif 9.3KB Metadata I?? File for each individual data file
20070726153402012_0012_20020307_233215p.mb57.mif 9.3KB Metadata I?? File for each individual data file
20070726153403013_0013_20020307_233557p.mb57.mif 9.3KB Metadata I?? File for each individual data file
20070726153406014_0015_20020308_000311p.mb57.mif 9.3KB Metadata I?? File for each individual data file
20070726153407015_0016_20020308_001435p.mb57.mif 9.3KB Metadata I?? File for each individual data file
20070726153407016_0017_20020308_004507p.mb57.mif 9.3KB Metadata I?? File for each individual data file
20070726153408017_0018_20020308_011630p.mb57.mif 9.3KB Metadata I?? File for each individual data file
20070726153411018_0019_20020308_015821p.mb57.mif 9.3KB Metadata I?? File for each individual data file
20070726153411019_0020_20020308_020920p.mb57.mif 9.3KB Metadata I?? File for each individual data file
20070726153412020_0021_20020308_022525p.mb57.mif 9.3KB Metadata I?? File for each individual data file
20070726153415021_0022_20020308_024050p.mb57.mif 9.3KB Metadata I?? File for each individual data file
20070726153416022_0023_20020308_025523p.mb57.mif 9.3KB Metadata I?? File for each individual data file
20070726153417023_0024_20020308_030057p.mb57.mif 9.3KB Metadata I?? File for each individual data file
20070726153418024_0025_20020308_033312p.mb57.mif 9.3KB Metadata I?? File for each individual data file
20070726153419025_0026_20020308_033551p.mb57.mif 9.3KB Metadata I?? File for each individual data file
20070726153420026_0027_20020308_035002p.mb57.mif 9.3KB Metadata I?? File for each individual data file
20070726153421027_0028_20020308_035233p.mb57.mif 9.3KB Metadata I?? File for each individual data file
20070726153422028_0029_20020308_040351p.mb57.mif 9.3KB Metadata I?? File for each individual data file
20070726153422029_0030_20020308_040557p.mb57.mif 9.3KB Metadata I?? File for each individual data file
20070726153423030_0031_20020308_044148p.mb57.mif 9.3KB Metadata I?? File for each individual data file
20070726153423031_0032_20020308_044305p.mb57.mif 9.3KB Metadata I?? File for each individual data file
20070726153424032_0033_20020308_044551p.mb57.mif 9.3KB Metadata I?? File for each individual data file
20070726153426033_0034_20020308_053732p.mb57.mif 9.3KB Metadata I?? File for each individual data file
20070726153426034_0035_20020308_060147p.mb57.mif 9.3KB Metadata I?? File for each individual data file
20070726153427035_0036_20020308_061128p.mb57.mif 9.3KB Metadata I?? File for each individual data file
20070726153427036_0037_20020308_072359p.mb57.mif 9.3KB Metadata I?? File for each individual data file
20070726153428037_0038_20020308_072604p.mb57.mif 9.3KB Metadata I?? File for each individual data file
20070726153428038_0039_20020308_083824p.mb57.mif 9.3KB Metadata I?? File for each individual data file
20070726153428039_0040_20020308_085713p.mb57.mif 9.3KB Metadata I?? File for each individual data file
20070726153429040_0041_20020308_085944p.mb57.mif 9.3KB Metadata I?? File for each individual data file
20070726153430041_0042_20020308_093057p.mb57.mif 9.3KB Metadata I?? File for each individual data file
20070726153430042_0043_20020308_093643p.mb57.mif 9.3KB Metadata I?? File for each individual data file
20070726153431043_0044_20020308_105330p.mb57.mif 9.3KB Metadata I?? File for each individual data file
20070726153431044_0045_20020308_110917p.mb57.mif 9.3KB Metadata I?? File for each individual data file
20070726153432045_0046_20020308_113615p.mb57.mif 9.3KB Metadata I?? File for each individual data file
20070726153432046_0047_20020308_125002p.mb57.mif 9.3KB Metadata I?? File for each individual data file
20070726153433047_0048_20020308_135046p.mb57.mif 9.3KB Metadata I?? File for each individual data file
20070726153434048_0049_20020308_144514p.mb57.mif 9.3KB Metadata I?? File for each individual data file
20070726153434049_0050_20020308_150003p.mb57.mif 9.3KB Metadata I?? File for each individual data file
20070726153435050_0051_20020308_150147p.mb57.mif 9.3KB Metadata I?? File for each individual data file
20070726153435051_0052_20020308_152817p.mb57.mif 9.3KB Metadata I?? File for each individual data file
20070726153435052_0053_20020308_153038p.mb57.mif 9.3KB Metadata I?? File for each individual data file
20070726153436053_0054_20020308_163524p.mb57.mif 9.3KB Metadata I?? File for each individual data file
20070726153436054_0055_20020308_170612p.mb57.mif 9.3KB Metadata I?? File for each individual data file
20070726153437055_0056_20020308_180458p.mb57.mif 9.3KB Metadata I?? File for each individual data file
20070726153437056_0057_20020308_181754p.mb57.mif 9.3KB Metadata I?? File for each individual data file
20070726153438057_0058_20020308_182824p.mb57.mif 9.3KB Metadata I?? File for each individual data file
20070726153438058_0059_20020308_184306p.mb57.mif 9.3KB Metadata I?? File for each individual data file
20070726153439059_0060_20020308_184646p.mb57.mif 9.3KB Metadata I?? File for each individual data file
20070726153440060_0061_20020308_185314p.mb57.mif 9.3KB Metadata I?? File for each individual data file
20070726153440061_0062_20020308_185430p.mb57.mif 9.3KB Metadata I?? File for each individual data file
20070726153442062_0063_20020308_190731p.mb57.mif 9.3KB Metadata I?? File for each individual data file
20070726153442063_0064_20020308_191236p.mb57.mif 9.3KB Metadata I?? File for each individual data file
20070726153442064_0065_20020308_192121p.mb57.mif 9.3KB Metadata I?? File for each individual data file
20070726153443065_0066_20020308_193100p.mb57.mif 9.3KB Metadata I?? File for each individual data file